Location: Quedlinburg
(51.7921°N, 11.1414°E)
Time: 12:32:43
(UTC+01:00)

Oscar 19 - Visible Passes

Search period start: 15 March 2026 00:00
Search period end: 25 March 2026 00:00
Orbit: 769 x 787 km, 98.9° (Epoch: 14 March)

Date Brightness Start Highest point End Pass type
(mag) Time Alt. Az. Time Alt. Az. Time Alt. Az.
15 Mar 13.3 19:25:34 10° SW 19:29:38 23° W 19:33:41 10° NW visible
16 Mar 14.3 05:52:02 10° ENE 05:54:19 13° E 05:56:36 10° ESE visible
16 Mar 12.2 18:51:29 10° S 18:56:19 41° W 19:01:11 10° NNW visible
17 Mar 13.8 20:01:06 10° WSW 20:03:16 13° W 20:05:28 10° WNW visible
18 Mar 13.3 19:25:44 10° SW 19:29:48 23° W 19:33:51 10° NW visible
20 Mar 13.8 20:01:14 10° WSW 20:03:26 13° W 20:05:38 10° WNW visible
21 Mar 13.3 19:25:54 10° SW 19:29:58 23° W 19:34:01 10° NW visible
23 Mar 13.8 20:01:22 10° WSW 20:03:35 13° W 20:05:49 10° WNW visible
24 Mar 13.3 19:26:03 10° SW 19:30:07 23° W 19:34:11 10° NW visible
